Change the Weather History Date:

Wednesday, January 16, 2013

  Actual Average Record
Temperature  
Mean Temperature 14 °F -  
Max Temperature 32 °F 17 °F 44 °F (1973)
Min Temperature -4 °F -5 °F -41 °F (1977)
Degree Days  
Heating Degree Days 51    
Moisture  
Dew Point 9 °F    
Average Humidity 84    
Maximum Humidity 100    
Minimum Humidity 52    
Precipitation  
Precipitation 0.00 in - - ()
Sea Level Pressure  
Sea Level Pressure 29.88 in    
Wind  
Wind Speed 15 mph (NW)    
Max Wind Speed 23 mph    
Max Gust Speed 31 mph    
Visibility 8 miles    
Events Snow    
Averages and records for this station are not official NWS values.
T = Trace of Precipitation, MM = Missing Value Source: NWS Daily Summary

Daily Weather History Graph

Daily Weather History Graph

Search for Another Location

Airport or City:

Trip Planner

Search our weather history database for the weather conditions in past years. The results will help you decide how hot, cold, wet, or windy it might be!

Date:

Astronomy

Jan. 16, 2013 Rise Set
Actual Time 8:03 AM CST 5:03 PM CST
Civil Twilight 7:29 AM CST 5:37 PM CST
Nautical Twilight 6:51 AM CST 6:15 PM CST
Astronomical Twilight 6:15 AM CST 6:51 PM CST
Moon 10:16 AM CST (1/16) 11:22 PM CST (1/16)
Length of Visible Light 10h 08m
Length of Day
9h 00m
Waxing Crescent, 28% of the Moon is Illuminated
Jan 16
Waxing Crescent
Jan 18
First Quarter
Jan 26
Full
Feb 3
Last Quarter
Feb 10
New

Hourly Weather History & Observations

Time (CST) Temp. Windchill Dew Point Humidity Pressure Visibility Wind Dir Wind Speed Gust Speed Precip Events Conditions
12:12 AM 23.0 °F 9.2 °F 21.2 °F 93% 29.55 in 4.0 mi SW 17.3 mph 23.0 mph N/A Snow Light Snow
12:32 AM 23.0 °F 7.6 °F 21.2 °F 93% 29.53 in 4.0 mi SW 21.9 mph 26.5 mph N/A Snow Light Snow
12:53 AM 23.0 °F 12.4 °F 23.0 °F 100% 29.54 in 3.0 mi WSW 10.4 mph - N/A   Overcast
1:12 AM 24.8 °F 12.4 °F 23.0 °F 93% 29.52 in 4.0 mi SW 15.0 mph 20.7 mph N/A Snow Light Snow
1:32 AM 26.6 °F 15.7 °F 26.6 °F 100% 29.52 in 4.0 mi WSW 12.7 mph 23.0 mph N/A   Overcast
1:53 AM 28.4 °F 16.6 °F 28.4 °F 100% 29.54 in 7.0 mi West 16.1 mph 19.6 mph N/A   Overcast
2:12 AM 30.2 °F 19.8 °F 28.4 °F 93% 29.54 in 10.0 mi West 13.8 mph 17.3 mph N/A   Overcast
2:32 AM 30.2 °F 20.2 °F 30.2 °F 100% 29.54 in 2.5 mi West 12.7 mph - N/A Snow Light Snow
2:53 AM 32.0 °F 22.5 °F 32.0 °F 100% 29.56 in 3.0 mi WNW 12.7 mph 18.4 mph N/A Snow Light Snow
3:12 AM 32.0 °F 21.2 °F 32.0 °F 100% 29.56 in 10.0 mi WNW 16.1 mph 20.7 mph N/A   Overcast
3:32 AM 32.0 °F 20.1 °F 32.0 °F 100% 29.57 in 3.0 mi NW 19.6 mph 23.0 mph N/A   Overcast
3:53 AM 32.0 °F 20.5 °F 32.0 °F 100% 29.58 in 4.0 mi NW 18.4 mph 23.0 mph N/A   Overcast
4:12 AM 30.2 °F 17.4 °F 28.4 °F 93% 29.59 in 10.0 mi NNW 20.7 mph 25.3 mph N/A   Overcast
4:32 AM 28.4 °F 15.4 °F 26.6 °F 93% 29.59 in 10.0 mi NW 19.6 mph 25.3 mph N/A   Overcast
4:53 AM 26.6 °F 12.0 °F 21.2 °F 80% 29.60 in 10.0 mi NW 23.0 mph 26.5 mph N/A   Mostly Cloudy
5:12 AM 23.0 °F 8.7 °F 21.2 °F 93% 29.61 in 10.0 mi NNW 18.4 mph 25.3 mph N/A   Scattered Clouds
5:33 AM 21.2 °F 6.0 °F 19.4 °F 93% 29.62 in 10.0 mi NNW 19.6 mph 26.5 mph N/A   Clear
6:32 AM 19.4 °F 5.5 °F 19.4 °F 100% 29.66 in 10.0 mi NW 15.0 mph 20.7 mph N/A   Overcast
6:52 AM 19.4 °F 5.5 °F 19.4 °F 100% 29.66 in 10.0 mi NNW 15.0 mph 20.7 mph N/A   Overcast
7:13 AM 19.4 °F 5.5 °F 17.6 °F 93% 29.68 in 10.0 mi NNW 15.0 mph - N/A   Overcast
7:32 AM 19.4 °F 5.0 °F 17.6 °F 93% 29.68 in 10.0 mi NNW 16.1 mph - N/A   Overcast
7:53 AM 19.4 °F 6.6 °F 17.6 °F 93% 29.70 in 10.0 mi NW 12.7 mph - N/A   Overcast
8:13 AM 17.6 °F 2.7 °F 17.6 °F 100% 29.72 in 10.0 mi NW 16.1 mph - N/A   Overcast
8:32 AM 17.6 °F 4.3 °F 15.8 °F 93% 29.73 in 10.0 mi NW 12.7 mph - N/A   Overcast
8:53 AM 15.8 °F 0.3 °F 14.0 °F 93% 29.75 in 10.0 mi NW 16.1 mph - N/A   Overcast
9:12 AM 15.8 °F 2.1 °F 14.0 °F 93% 29.76 in 5.0 mi NW 12.7 mph - N/A Snow Light Snow
9:33 AM 15.8 °F 0.9 °F 14.0 °F 93% 29.78 in 2.5 mi NNW 15.0 mph 20.7 mph N/A Snow Light Snow
9:53 AM 15.8 °F 1.4 °F 14.0 °F 93% 29.79 in 1.8 mi NNW 13.8 mph 18.4 mph N/A Snow Light Snow
10:12 AM 15.8 °F 0.3 °F 14.0 °F 93% 29.80 in 2.0 mi North 16.1 mph 21.9 mph N/A Snow Light Snow
10:33 AM 15.8 °F 2.1 °F 12.2 °F 86% 29.82 in 1.5 mi NNW 12.7 mph - N/A Snow Light Snow
10:53 AM 15.8 °F 1.4 °F 12.2 °F 86% 29.82 in 3.0 mi North 13.8 mph 19.6 mph N/A Snow Light Snow
11:12 AM 15.8 °F 3.4 °F 12.2 °F 86% 29.84 in 5.0 mi NNW 10.4 mph - N/A   Mostly Cloudy
11:33 AM 15.8 °F 0.9 °F 12.2 °F 86% 29.84 in 10.0 mi North 15.0 mph 19.6 mph N/A   Scattered Clouds
11:53 AM 14.0 °F -3.4 °F 8.6 °F 79% 29.85 in 10.0 mi NNW 19.6 mph 25.3 mph N/A   Clear
12:12 PM 14.0 °F -1.4 °F 8.6 °F 79% 29.87 in 10.0 mi North 15.0 mph - N/A   Clear
12:33 PM 14.0 °F -2.0 °F 8.6 °F 79% 29.89 in 10.0 mi NNW 16.1 mph 20.7 mph N/A   Clear
12:53 PM 14.0 °F -2.0 °F 3.2 °F 62% 29.90 in 10.0 mi North 16.1 mph 31.1 mph N/A   Clear
1:12 PM 12.2 °F -6.3 °F 1.4 °F 62% 29.92 in 10.0 mi NNW 20.7 mph 27.6 mph N/A   Clear
1:33 PM 10.4 °F -5.4 °F 1.4 °F 67% 29.93 in 10.0 mi North 13.8 mph 20.7 mph N/A   Clear
1:53 PM 10.4 °F -5.4 °F -0.4 °F 62% 29.93 in 10.0 mi North 13.8 mph 19.6 mph N/A   Clear
2:12 PM 12.2 °F -5.3 °F -0.4 °F 57% 29.95 in 10.0 mi North 18.4 mph 24.2 mph N/A   Clear
2:33 PM 10.4 °F -7.7 °F -0.4 °F 62% 29.97 in 10.0 mi NNW 18.4 mph 23.0 mph N/A   Clear
2:53 PM 10.4 °F -7.2 °F -4.0 °F 52% 29.99 in 10.0 mi North 17.3 mph 24.2 mph N/A   Clear
3:12 PM 10.4 °F -7.2 °F -0.4 °F 62% 30.00 in 10.0 mi North 17.3 mph - N/A   Clear
3:33 PM 10.4 °F -7.7 °F -0.4 °F 62% 30.02 in 10.0 mi North 18.4 mph - N/A   Clear
3:53 PM 8.6 °F -9.5 °F -4.0 °F 57% 30.02 in 10.0 mi NNW 17.3 mph - N/A   Clear
4:12 PM 8.6 °F -9.5 °F -4.0 °F 57% 30.03 in 10.0 mi NNW 17.3 mph 23.0 mph N/A   Clear
4:33 PM 6.8 °F -9.3 °F -0.4 °F 72% 30.05 in 10.0 mi NW 12.7 mph - N/A   Clear
4:53 PM 5.0 °F -11.6 °F -0.4 °F 78% 30.09 in 10.0 mi NW 12.7 mph - N/A   Clear
5:12 PM 3.2 °F -14.6 °F -0.4 °F 85% 30.09 in 10.0 mi NNW 13.8 mph - N/A   Clear
5:52 PM 1.4 °F -17.6 °F -4.0 °F 78% 30.12 in 10.0 mi NW 15.0 mph 19.6 mph N/A   Clear
6:12 PM 1.4 °F -16.1 °F -4.0 °F 78% 30.12 in 10.0 mi NNW 12.7 mph - N/A   Clear
6:33 PM -0.4 °F -14.7 °F -4.0 °F 85% 30.14 in 10.0 mi NW 8.1 mph - N/A   Clear
6:52 PM -0.4 °F -15.7 °F -4.0 °F 85% 30.14 in 10.0 mi NW 9.2 mph - N/A   Clear
7:13 PM -0.4 °F -16.7 °F -5.8 °F 78% 30.16 in 10.0 mi NW 10.4 mph - N/A   Clear
7:33 PM -0.4 °F -14.7 °F -5.8 °F 78% 30.17 in 10.0 mi NW 8.1 mph - N/A   Clear
7:52 PM -2.2 °F -15.6 °F -5.8 °F 85% 30.16 in 10.0 mi WNW 6.9 mph - N/A   Clear
8:13 PM -2.2 °F -16.8 °F -5.8 °F 85% 30.17 in 10.0 mi NW 8.1 mph - N/A   Clear
8:52 PM -4.0 °F -20.2 °F -7.6 °F 85% 30.20 in 10.0 mi NW 9.2 mph - N/A   Clear
9:13 PM -4.0 °F -17.8 °F -7.6 °F 85% 30.21 in 10.0 mi NW 6.9 mph - N/A   Clear
9:33 PM -4.0 °F -21.2 °F -7.6 °F 85% 30.22 in 10.0 mi NW 10.4 mph - N/A   Clear
9:52 PM -4.0 °F -20.2 °F -7.6 °F 85% 30.24 in 10.0 mi WNW 9.2 mph - N/A   Clear
10:13 PM -4.0 °F -20.2 °F -7.6 °F 85% 30.25 in 10.0 mi NW 9.2 mph - N/A   Scattered Clouds
10:33 PM -4.0 °F -19.0 °F -7.6 °F 85% 30.25 in 10.0 mi NW 8.1 mph - N/A   Scattered Clouds
10:52 PM -4.0 °F -19.0 °F -7.6 °F 85% 30.26 in 10.0 mi NNW 8.1 mph - N/A   Scattered Clouds
11:13 PM -4.0 °F -20.2 °F -7.6 °F 85% 30.26 in 10.0 mi NW 9.2 mph - N/A   Scattered Clouds
11:33 PM -2.2 °F -15.6 °F -7.6 °F 78% 30.26 in 10.0 mi NW 6.9 mph - N/A   Scattered Clouds
11:52 PM -2.2 °F -15.6 °F -7.6 °F 78% 30.26 in 10.0 mi NNW 6.9 mph - N/A   Clear